This is the latest recevied weather packets stored in our database for station/object R2AJV-13. If no packets are shown the sender has not sent any weather packets the latest 10 day(s).
| Time | Temp. | Humidity | Pressure | Rain* | Wind** | Luminosity | Snow |
|---|---|---|---|---|---|---|---|
| 1777703429 | 10° C | 67% | 1004.6 hPa | 0 mm | - | - | - |
| 1777702518 | 9.44° C | 69% | 1004.7 hPa | 0 mm | - | - | - |
| 1777701669 | 8.89° C | 72% | 1004.7 hPa | 0 mm | - | - | - |
| 1777632334 | 10.56° C | 41% | 1005.2 hPa | 0 mm | - | - | - |
| 1777631429 | 11.11° C | 38% | 1005.3 hPa | 0 mm | - | - | - |
| 1777630520 | 10.56° C | 38% | 1005.4 hPa | 0 mm | - | - | - |
| 1777629668 | 10° C | 41% | 1005.3 hPa | 0 mm | - | - | - |
| 1777628758 | 9.44° C | 43% | 1005.4 hPa | 0 mm | - | - | - |
| 1777627853 | 8.89° C | 48% | 1005.4 hPa | 0 mm | - | - | - |
| 1777626064 | 10° C | 49% | 1005.4 hPa | 0 mm | - | - | - |
| 1777625153 | 9.44° C | 52% | 1005.5 hPa | 0 mm | - | - | - |
| 1777624243 | 9.44° C | 52% | 1005.5 hPa | 0 mm | - | - | - |
| 1777623332 | 8.89° C | 52% | 1005.5 hPa | 0 mm | - | - | - |
| 1777622421 | 8.89° C | 55% | 1005.6 hPa | 0 mm | - | - | - |
| 1777621517 | 8.33° C | 56% | 1005.7 hPa | 0 mm | - | - | - |
| 1777620666 | 7.78° C | 57% | 1005.6 hPa | 0 mm | - | - | - |
| 1777619756 | 7.78° C | 56% | 1005.6 hPa | 0 mm | - | - | - |
| 1777618845 | 7.22° C | 59% | 1005.7 hPa | 0 mm | - | - | - |
| 1777617934 | 6.11° C | 63% | 1005.6 hPa | 0 mm | - | - | - |
| 1777617029 | 5.56° C | 66% | 1005.5 hPa | 0 mm | - | - | - |
| 1777616119 | 5° C | 66% | 1005.6 hPa | 0 mm | - | - | - |
| 1777615268 | 4.44° C | 68% | 1005.5 hPa | 0 mm | - | - | - |
| 1777572918 | 1.67° C | 84% | 1006.3 hPa | 0 mm | - | - | - |
| 1777572068 | 1.67° C | 81% | 1006.4 hPa | 0 mm | - | - | - |
| 1777571159 | 1.67° C | 79% | 1006.4 hPa | 0 mm | - | - | - |
* Rain latest hour (hover to see other rain measurements)
** Current wind speed in m/s (hover to see current wind gust speed)